星链-3699 (STARLINK-3699 )

导读 | 豆包AI

STARLINK-3699是美国SpaceX公司星链(Starlink)星座的成员卫星,于2022年3月9日发射升空,部署在近地轨道。作为全球卫星互联网组网计划的一环,它承担着为偏远、基础设施匮乏区域提供宽带互联网接入的任务,助力实现覆盖全球的高速低延迟网络服务,是星链大规模星座组网进程中的发射单元。

基本信息
目录编号:
51966
目录名称:
STARLINK-3699
国际标识:
2022-025L
轨道中心:
EARTH
卫星名称:
星链-3699
卫星全名:
星链-3699 (STARLINK-3699 )
卫星状态:
在轨 (已飞行1466 天)
发射日期:
2022-03-09 UTC
国别 :
美国 (US)
星等 :
--
轨道信息
数据来源 国际轨道数据
星历时间: 2026-03-14T21:04:41+0800
8小时前
查看轨道信息
半长轴: 6925.352km
偏心率: 0.0001229
轨道倾角: 53.055°
近地点辐角 91.022°
升交点赤经 9.032°
平近点角 269.091°
近地点: 546.363km
远地点: 548.067km
周期: 95.592分钟
每日圈数: 15.06399
详细信息
固有亮度:
5
最大亮度:
2.5
卫星平台:
Starlink v1.5
覆盖范围:
全球
运营商:
太空探索技术公司
运营商所在国:
美国
制造商(研发单位):
太空探索技术公司
制造商所在国:
美国
使用方式:
暂无
卫星简介
星链(Starlink)计划是由太空探索技术公司(SpaceX)提出的一个巨型低轨卫星互联网星座项目,计划在2019年至2024年间在太空搭建由约1.2万颗卫星组成的“星链”网络,其中1584颗将部署在地球上空550千米处的近地轨道,并从2020年开始工作。该卫星仍在工作。
2D轨道图
3D轨道图
轨道高度分析图
轨道倾角分析图
轨道综合分析图
查看轨道综合分析图